SL-14 DEB

基本信息
目录编号:
45271
目录名称:
SL-14 DEB
国际标识:
1991-056H
轨道中心:
EARTH
物体状态:
在轨
发射日期:
1991-08-15 UTC
轨道信息
数据来源: 国际轨道数据
星历时间: 2026-09-15T20:23:39+0800
半长轴: 7613.98km
偏心率: 0.0050775
轨道倾角: 82.384°
近地点辐角: 123.339°
升交点赤经: 94.410°
平近点角: 237.260°
近地点: 1197.183km
远地点: 1274.503km
周期: 110.199分钟
每日圈数: 13.067281
详细信息
发射场:
PKMTR
轨道高度:
LEO
数据来源:
AOE Integration Group
参考系:
TEME
时间系统:
UTC
历元类型:
SGP4
2D轨道图
3D轨道图
轨道高度分析图
轨道倾角分析图
轨道综合分析图
查看轨道综合分析图